• în România
  • Lista ţărilor
  • Pe 7 zile
  • Temperatura apei
  • Hartă satelitară
  • Meteo pe hartă
  • Widget-uri
  • user-avatar
    Intrare

    Meteo pe oră la Cabimas

    Astăzi, 22 Septembrie, Sâmbătă

    Timp Temperatura Precipitaţii Vânt Presiune Umiditate
    00:00 +28°C° 1.4 mm 4 m/s 756 mmHg 80%
    01:00 +28°C° 1.4 mm 4 m/s 756 mmHg 84%
    02:00 +28°C° 1.1 mm 4 m/s 756 mmHg 85%
    03:00 +27°C° 1.1 mm 4 m/s 756 mmHg 86%
    04:00 +27°C° 1.1 mm 3 m/s 756 mmHg 86%
    05:00 +28°C° 0.1 mm 3 m/s 756 mmHg 85%
    06:00 +28°C° 0.1 mm 3 m/s 756 mmHg 83%
    07:00 +29°C° 0.1 mm 3 m/s 756 mmHg 82%
    08:00 +31°C° 0 mm 2 m/s 756 mmHg 72%
    09:00 +34°C° 0 mm 2 m/s 756 mmHg 63%
    10:00 +36°C° 0 mm 2 m/s 756 mmHg 53%
    11:00 +37°C° 0 mm 2 m/s 756 mmHg 51%
    12:00 +37°C° 0 mm 2 m/s 755 mmHg 49%
    13:00 +38°C° 0 mm 2 m/s 754 mmHg 46%
    14:00 +37°C° 0 mm 2 m/s 754 mmHg 52%
    15:00 +36°C° 0 mm 3 m/s 753 mmHg 57%
    16:00 +35°C° 0 mm 3 m/s 753 mmHg 63%
    17:00 +34°C° 0.1 mm 3 m/s 753 mmHg 68%
    18:00 +32°C° 0.1 mm 4 m/s 754 mmHg 73%
    19:00 +29°C° 0.1 mm 4 m/s 755 mmHg 78%
    20:00 +29°C° 0.7 mm 4 m/s 755 mmHg 80%
    21:00 +29°C° 0.7 mm 4 m/s 756 mmHg 81%
    22:00 +29°C° 0.7 mm 5 m/s 756 mmHg 82%
    23:00 +29°C° 0.5 mm 4 m/s 756 mmHg 82%

    Mâine, 23 Septembrie, Duminică

    Timp Temperatura Precipitaţii Vânt Presiune Umiditate
    00:00 +28°C° 0.5 mm 4 m/s 755 mmHg 83%
    01:00 +28°C° 0.5 mm 3 m/s 755 mmHg 84%
    02:00 +28°C° 1 mm 3 m/s 755 mmHg 85%
    03:00 +28°C° 1 mm 3 m/s 755 mmHg 86%
    04:00 +27°C° 1 mm 2 m/s 755 mmHg 87%
    05:00 +28°C° 0.3 mm 2 m/s 755 mmHg 87%
    06:00 +28°C° 0.3 mm 3 m/s 755 mmHg 87%
    07:00 +28°C° 0.3 mm 3 m/s 756 mmHg 87%
    08:00 +30°C° 1 mm 2 m/s 756 mmHg 80%
    09:00 +31°C° 1 mm 2 m/s 756 mmHg 73%
    10:00 +34°C° 1 mm 2 m/s 756 mmHg 67%
    11:00 +34°C° 0 mm 2 m/s 755 mmHg 63%
    12:00 +35°C° 0 mm 2 m/s 755 mmHg 59%
    13:00 +35°C° 0 mm 1 m/s 754 mmHg 55%
    14:00 +34°C° 0 mm 1 m/s 754 mmHg 56%
    15:00 +34°C° 0 mm 1 m/s 753 mmHg 58%
    16:00 +34°C° 0 mm 1 m/s 753 mmHg 59%
    17:00 +34°C° 0 mm 2 m/s 753 mmHg 63%
    18:00 +31°C° 0 mm 2 m/s 754 mmHg 67%
    19:00 +30°C° 0 mm 3 m/s 755 mmHg 70%
    20:00 +30°C° 0.2 mm 3 m/s 755 mmHg 73%
    21:00 +29°C° 0.2 mm 4 m/s 756 mmHg 76%
    22:00 +29°C° 0.2 mm 4 m/s 756 mmHg 79%
    23:00 +28°C° 0.3 mm 4 m/s 756 mmHg 80%

    Poimâine, 24 Septembrie, Luni

    Timp Temperatura Precipitaţii Vânt Presiune Umiditate
    00:00 +28°C° 0.3 mm 3 m/s 756 mmHg 82%
    01:00 +28°C° 0.3 mm 3 m/s 755 mmHg 83%
    02:00 +28°C° 0.6 mm 2 m/s 755 mmHg 83%
    03:00 +28°C° 0.6 mm 2 m/s 755 mmHg 84%
    04:00 +28°C° 0.6 mm 2 m/s 755 mmHg 84%
    05:00 +28°C° 0.3 mm 2 m/s 756 mmHg 84%
    06:00 +28°C° 0.3 mm 2 m/s 756 mmHg 83%
    07:00 +29°C° 0.3 mm 2 m/s 756 mmHg 83%
    08:00 +30°C° 0.5 mm 2 m/s 757 mmHg 76%
    09:00 +32°C° 0.5 mm 2 m/s 757 mmHg 69%
    10:00 +34°C° 0.5 mm 2 m/s 758 mmHg 63%
    11:00 +35°C° 0 mm 2 m/s 757 mmHg 60%
    12:00 +35°C° 0 mm 2 m/s 756 mmHg 56%
    13:00 +36°C° 0 mm 2 m/s 756 mmHg 53%
    14:00 +35°C° 0 mm 2 m/s 755 mmHg 57%
    15:00 +35°C° 0 mm 2 m/s 755 mmHg 60%
    16:00 +34°C° 0 mm 2 m/s 754 mmHg 64%
    17:00 +32°C° 0.1 mm 1 m/s 755 mmHg 68%
    18:00 +31°C° 0.1 mm 1 m/s 755 mmHg 72%
    19:00 +29°C° 0.1 mm 1 m/s 756 mmHg 76%
    20:00 +29°C° 0 mm 2 m/s 756 mmHg 77%
    21:00 +29°C° 0 mm 2 m/s 757 mmHg 77%
    22:00 +29°C° 0 mm 3 m/s 757 mmHg 78%
    23:00 +28°C° 0.4 mm 2 m/s 757 mmHg 77%

    25 Septembrie, Marţi

    Timp Temperatura Precipitaţii Vânt Presiune Umiditate
    00:00 +28°C° 0.4 mm 2 m/s 757 mmHg 77%
    01:00 +28°C° 0.4 mm 2 m/s 757 mmHg 77%
    02:00 +28°C° 0.1 mm 2 m/s 757 mmHg 75%
    03:00 +28°C° 0.1 mm 2 m/s 756 mmHg 74%
    04:00 +28°C° 0.1 mm 2 m/s 756 mmHg 73%
    05:00 +28°C° 0.5 mm 2 m/s 757 mmHg 72%
    06:00 +29°C° 0.5 mm 2 m/s 757 mmHg 70%
    07:00 +29°C° 0.5 mm 2 m/s 758 mmHg 69%
    08:00 +31°C° 0 mm 2 m/s 758 mmHg 63%
    09:00 +35°C° 0 mm 2 m/s 758 mmHg 56%
    10:00 +37°C° 0 mm 2 m/s 758 mmHg 50%
    11:00 +38°C° 0 mm 2 m/s 757 mmHg 49%
    12:00 +38°C° 0 mm 3 m/s 756 mmHg 47%
    13:00 +39°C° 0 mm 3 m/s 756 mmHg 46%
    14:00 +38°C° 0 mm 4 m/s 755 mmHg 49%
    15:00 +37°C° 0 mm 4 m/s 755 mmHg 52%
    16:00 +35°C° 0 mm 4 m/s 755 mmHg 55%
    17:00 +34°C° 0.1 mm 4 m/s 755 mmHg 60%
    18:00 +32°C° 0.1 mm 4 m/s 756 mmHg 65%
    19:00 +29°C° 0.1 mm 4 m/s 756 mmHg 69%
    20:00 +29°C° 0.5 mm 3 m/s 756 mmHg 69%
    21:00 +29°C° 0.5 mm 3 m/s 757 mmHg 69%
    22:00 +29°C° 0.5 mm 3 m/s 757 mmHg 68%
    23:00 +28°C° 0.2 mm 3 m/s 757 mmHg 70%

    26 Septembrie, Miercuri

    Timp Temperatura Precipitaţii Vânt Presiune Umiditate
    00:00 +28°C° 0.2 mm 3 m/s 756 mmHg 71%
    01:00 +28°C° 0.2 mm 3 m/s 756 mmHg 72%
    02:00 +28°C° 0 mm 3 m/s 756 mmHg 73%
    03:00 +28°C° 0 mm 3 m/s 756 mmHg 74%
    04:00 +27°C° 0 mm 2 m/s 756 mmHg 75%
    05:00 +28°C° 0 mm 2 m/s 756 mmHg 74%
    06:00 +29°C° 0 mm 2 m/s 757 mmHg 73%
    07:00 +29°C° 0 mm 2 m/s 757 mmHg 71%
    08:00 +32°C° 0 mm 2 m/s 757 mmHg 63%
    09:00 +35°C° 0 mm 2 m/s 757 mmHg 55%
    10:00 +36°C° 0 mm 1 m/s 757 mmHg 47%
    11:00 +37°C° 0 mm 2 m/s 756 mmHg 47%
    12:00 +37°C° 0 mm 2 m/s 755 mmHg 46%
    13:00 +37°C° 0 mm 3 m/s 754 mmHg 46%
    14:00 +37°C° 0 mm 3 m/s 754 mmHg 49%
    15:00 +36°C° 0 mm 3 m/s 754 mmHg 53%
    16:00 +35°C° 0 mm 4 m/s 753 mmHg 56%
    17:00 +34°C° 0 mm 4 m/s 754 mmHg 60%
    18:00 +32°C° 0 mm 4 m/s 755 mmHg 64%
    19:00 +30°C° 0 mm 4 m/s 755 mmHg 69%
    20:00 +29°C° 0.1 mm 5 m/s 756 mmHg 71%
    21:00 +29°C° 0.1 mm 5 m/s 756 mmHg 73%
    22:00 +29°C° 0.1 mm 5 m/s 757 mmHg 75%
    23:00 +28°C° 0.4 mm 5 m/s 756 mmHg 76%

    27 Septembrie, Joi

    Timp Temperatura Precipitaţii Vânt Presiune Umiditate
    00:00 +28°C° 0.4 mm 4 m/s 756 mmHg 77%
    01:00 +28°C° 0.4 mm 4 m/s 755 mmHg 79%
    02:00 +28°C° 0.1 mm 3 m/s 755 mmHg 80%
    03:00 +28°C° 0.1 mm 3 m/s 755 mmHg 81%
    04:00 +27°C° 0.1 mm 3 m/s 755 mmHg 82%
    05:00 +28°C° 0.2 mm 3 m/s 756 mmHg 81%
    06:00 +28°C° 0.2 mm 3 m/s 757 mmHg 81%
    07:00 +29°C° 0.2 mm 3 m/s 757 mmHg 80%
    08:00 +31°C° 0.4 mm 2 m/s 757 mmHg 72%
    09:00 +34°C° 0.4 mm 2 m/s 757 mmHg 64%
    10:00 +36°C° 0.4 mm 2 m/s 757 mmHg 57%
    11:00 +36°C° 0.3 mm 2 m/s 756 mmHg 54%
    12:00 +37°C° 0.3 mm 2 m/s 755 mmHg 51%
    13:00 +38°C° 0.3 mm 2 m/s 755 mmHg 48%
    14:00 +36°C° 0.4 mm 3 m/s 754 mmHg 56%
    15:00 +35°C° 0.4 mm 3 m/s 754 mmHg 64%
    16:00 +34°C° 0.4 mm 3 m/s 754 mmHg 72%
    17:00 +31°C° 0.2 mm 3 m/s 755 mmHg 75%
    18:00 +30°C° 0.2 mm 4 m/s 755 mmHg 78%
    19:00 +29°C° 0.2 mm 4 m/s 756 mmHg 81%
    20:00 +29°C° 1.3 mm 4 m/s 756 mmHg 83%
    21:00 +28°C° 1.3 mm 5 m/s 757 mmHg 85%
    22:00 +28°C° 1.3 mm 5 m/s 757 mmHg 86%
    23:00 +28°C° 0.9 mm 5 m/s 757 mmHg 87%
    Arată mai mult